Regional Weather Roundup
Issued by NWS

Home | Current Version | Previous Version | Text Only | Print | Product List | Glossary Off
Versions: 1 2 3 4 5 6 7 8 9 10 11 12 13 14 15 16 17 18 19 20 21 22 23 24 25 26 27 28 29 30 31 32 33 34 35 36 37 38 39 40 41 42 43 44 45 46 47 48 49 50

000
ASUS43 KDMX 230401
RWRIA

WEATHER ROUNDUP FOR IOWA
NATIONAL WEATHER SERVICE DES MOINES IA
1000 PM CST WED FEB 22 2017

NOTE: "FAIR" INDICATES FEW OR NO CLOUDS BELOW 12,000 FEET WITH NO
SIGNIFICANT WEATHER AND/OR OBSTRUCTIONS TO VISIBILITY.

* - THESE STATIONS ARE NOT NWS STATIONS...THUS NOT UNDER NWS
QUALITY CONTROL.  THEY ALSO DO NOT REPORT WEATHER SUCH
AS PRECIPITATION OR FOG.

IAZ001>003-012>014-020>022-031>034-043>046-230500-
   NORTHWEST IOWA

CITY           SKY/WX    TMP DP  RH WIND       PRES   REMARKS
CARROLL *      CLEAR     45  43  93 NW12      29.78R
CHEROKEE *     CLEAR     42  39  90 N8        29.81R
DENISON *      CLEAR     45  39  81 N3        29.78R
LE MARS *      CLEAR     41  37  87 N10       29.83R
ORANGE CITY *  CLEAR     39  37  93 N9        29.82R WCI  33
SHELDON *      CLEAR     36  36 100 N9        29.81R WCI  29
SIOUX CITY     CLEAR     47  38  71 N15       29.81R
SPENCER        MOCLDY    38  37  97 N13       29.80R WCI  30
STORM LAKE *   CLEAR     41  37  87 N10       29.78R
$$

IAZ055>058-069>071-079>083-090>094-230500-
   SOUTHWEST IOWA

CITY           SKY/WX    TMP DP  RH WIND       PRES   REMARKS
ATLANTIC *     CLEAR     46  41  81 N7        29.78R
CLARINDA *     CLEAR     50  39  66 N12       29.78R
COUNCIL BLFS * CLEAR     48  39  71 N8        29.78R
CRESTON *      CLEAR     52  41  66 N16G23    29.75S
HARLAN  *      CLEAR     46  41  81 N10       29.82R
LAMONI         PTCLDY    54  39  57 N10       29.73R
RED OAK *      CLEAR     48  39  71 N10       29.77R
SHENANDOAH *   CLEAR     52  39  62 N12       29.77R
$$

IAZ047>049-059>061-072>074-084-230500-
   CENTRAL IOWA

CITY           SKY/WX    TMP DP  RH WIND       PRES   REMARKS
AMES           CLEAR     50  45  83 N18       29.76R
ANKENY *       CLEAR     52  43  71 NW10      29.76R
BOONE *        MOCLDY    48  45  87 NW10      29.75R
CHARITON *     CLEAR     54  41  62 NW14      29.72R
DES MOINES     CLEAR     55  42  61 N18G24    29.75R
GRINNELL*      PTCLDY    51  43  73 NW14      29.73R
KNOXVILLE *    CLEAR     54  41  62 NW15      29.71R
MARSHALLTOWN   CLEAR     47  43  86 NW10      29.72R
NEWTON *       CLEAR     52  43  71 NW14      29.72R
PELLA *        CLEAR     55  42  62 NW13      29.73R
PERRY *          N/A     49  40  72 NW16      29.77R
$$

IAZ004>006-015-016-023>025-035-036-230500-
   NORTH CENTRAL IOWA

CITY           SKY/WX    TMP DP  RH WIND       PRES   REMARKS
ALGONA *       CLOUDY    41  39  93 NW17      29.78R
CLARION *      CLEAR     41  41 100 NW9       29.75R
ESTHERVILLE    CLOUDY    38  37  97 NW20      29.79R WCI  28
FORT DODGE *   PTCLDY    45  36  70 NW6       29.78R
MASON CITY     CLOUDY    42  39  89 NW22G28   29.75R
FOREST CITY *  CLOUDY    41  37  87 NW20G29   29.74R
WEBSTER CITY * PTCLDY    43  39  87 NW14      29.74R
IOWA FALLS *     N/A     46  40  79 NW17      29.74R
$$

IAZ007>011-017>019-026>030-037>042-050>054-066-230500-
   NORTHEAST IOWA

CITY           SKY/WX    TMP DP  RH WIND       PRES   REMARKS
CEDAR RAPIDS   CLEAR     46  41  82 NW8       29.67R
CHARLES CITY * PTCLDY    46  46 100 NW16G22   29.69R
CLINTON *      CLEAR     50  44  80 W13       29.66R
DECORAH *      PTCLDY    48  45  87 W8G14     29.64R
DUBUQUE        CLEAR     51  44  77 NW13      29.64R
MONTICELLO *   CLEAR     48  43  81 W7        29.66R
OELWEIN *      CLEAR     46  46 100 NW12      29.68R
WATERLOO       CLEAR     48  43  82 W9        29.69R
$$

IAZ064-065-067-068-078-230500-
   EAST CENTRAL IOWA

CITY           SKY/WX    TMP DP  RH WIND       PRES   REMARKS
DAVENPORT      CLEAR     52  42  69 W7        29.67R
IOWA CITY      CLEAR     54  42  64 NW8       29.69R
MUSCATINE *    CLEAR     54  43  66 S3        29.68R
QUAD CITIES    CLEAR    N/A N/A N/A W6        29.66R
$$

IAZ062-063-075>077-085>089-095>099-230500-
   SOUTHEAST IOWA

CITY           SKY/WX    TMP DP  RH WIND       PRES   REMARKS
BURLINGTON     CLEAR     54  51  90 SW6       29.68R
FAIRFIELD *    CLEAR     57  39  51 W10       29.69R
KEOKUK *       CLEAR     54  50  87 CALM      29.69S
OTTUMWA        PTCLDY    57  42  57 NW13      29.70R
WASHINGTON *   CLEAR     55  41  58 W9        29.69R
$$

ABBREVIATIONS USED IN REMARKS
   TC - TEMPERATURES IN CELSIUS
  WCI - WIND CHILL INDEX
   HX - HEAT INDEX
  VSB - VISIBILITY
$$





USA.gov is the U.S. government's official web portal to all federal, state and local government web resources and services.